Regional Weather Roundup
Issued by NWS New Orleans/Baton Rouge, LA

Home | Current Version | Previous Version | Text Only | Print | Product List | Glossary On
Versions: 1 2 3 4 5 6 7 8 9 10 11 12 13 14 15 16 17 18 19 20 21 22 23 24 25 26 27 28 29 30 31 32 33 34 35 36 37 38 39 40 41 42 43 44 45 46 47 48 49 50
000
ASUS44 KLIX 231411
RWRLIX
NEW ORLEANS REGIONAL WEATHER ROUNDUP
NATIONAL WEATHER SERVICE NEW ORLEANS LA
900 AM CDT SAT MAY 23 2015

NOTE: "FAIR" INDICATES FEW OR NO CLOUDS BELOW 12,000 FEET WITH NO
      SIGNIFICANT WEATHER AND/OR OBSTRUCTIONS TO VISIBILITY.
      SKY/WX - SKY CONDITION AND SIGNIFICANT WEATHER.
      TMP - AIR TEMPERATURE.     DP    - DEWPOINT TEMPERATURE.
      RH  - RELATIVE HUMIDITY.   PRES  - PRESSURE.
      HI  - HEAT INDEX.          WCI   - WIND CHILL INDEX.

*  THESE STATIONS ARE NOT NWS OR FAA STATIONS AND ARE NOT UNDER
   NWS QUALITY CONTROL.

LAZ038-040-048-061>063-065>067-069-231500-
SOUTHEAST LOUISIANA

CITY           SKY/WX    TMP DP  RH WIND       PRES   REMARKS
N.O. AUDUBON     N/A     84  70  61 MISG        N/A
N.O. INTL ARPT MOSUNNY   81  67  62 E6        30.21S
N.O. LAKEFRONT SUNNY     81  69  67 E10       30.22S
SLIDELL        SUNNY     77  66  68 E7        30.22S
BATON ROUGE    SUNNY     76  67  73 E7        30.22R
BOOTHVILLE     SUNNY     81  69  67 E10       30.22R
BELLE CHASSE   PTSUNNY   80  69  69 E9        30.21R
BOGALUSA*        N/A     74  60  60 E3        30.26S
GALLIANO*      MOSUNNY   82  69  65 MISG      30.21R
NEW ROADS*       N/A     75  68  78 E6        30.22R
GONZALES*        N/A     77  73  87 E6        30.20S
HAMMOND*       SUNNY     77  63  61 E3        30.24S
HOUMA*         MOSUNNY   81  72  74 E7        30.20S
PORT FOURCHON* SUNNY     81  70  69 E12G17    30.20S

$$

MSZ070-080>082-231500-
SOUTHERN MISSISSIPPI

CITY           SKY/WX    TMP DP  RH WIND       PRES   REMARKS
MCCOMB         SUNNY     73  61  65 SE8       30.25R
GULFPORT       SUNNY     78  62  57 NE5       30.23R
BILOXI         SUNNY     77  63  60 E7        30.23S
PASCAGOULA     SUNNY     77  62  59 E5        30.24R
STENNIS ARPT*  SUNNY     77  59  53 MISG      30.23S

$$

COASTAL OBSERVATIONS
LAKE AND NEARSHORE STATIONS

STATION/POSITION TIME  TEMP    WIND        PRES    WAVE
                       AIR SEA DIR/SP/G            HT/PER
                 (UTC) (F)     (DEG/KT/KT) (MB)    (FT/S)
PASCAGOULA       1300   75      60/  8/ 12 1023.1
WAVELAND YACHT   1300   72 76   70/  7/  9 1023.6
GRAND ISLE       1300   80 81  100/  7/ 12 1022.4
SOUTHWEST PASS   1300   80 74   90/ 12/ 13 1023.0
NEW CANAL        1300   77 81   70/  7/  8 1022.2
SHELL BEACH      1300   79 81  100/ 10/ 13 1022.4

OFFSHORE STATIONS

STATION/POSITION TIME  TEMP    WIND        PRES    WAVE
                       AIR SEA DIR/SP/G            HT/PER
                 (UTC) (F)     (DEG/KT/KT) (MB)    (FT/S)
64 S DAUPHIN ISL 1350   80 80   90/ 12/ 14 1023.5    2/ 3

$$



USA.gov is the U.S. government's official web portal to all federal, state and local government web resources and services.